This demonstration page uses our WeatherBlox Daily Observations layout. Learn more.

Left ArrowRight Arrow

47.50024, -111.30081

Hourly Observations for March 27, 2015

Temp ( °F °C ) Dew Point ( °F °C ) Humidity (%) Winds ( mph kmh ) Pressure ( in mb ) Visibility ( mi km ) Precip ( " mm )
12:53 am 00:53 Clear 47 8.3 36 2.2 66 66 SW 10 17 30.10 1019 10 16 0.00 0.00
1:53 am 01:53 Clear 46 7.8 35 1.7 66 66 SW 10 17 30.09 1019 10 16 0.00 0.00
2:53 am 02:53 Clear 46 7.8 35 1.7 66 66 SW 14 22 30.07 1018 10 16 0.00 0.00
3:53 am 03:53 Clear 46 7.8 34 1.1 63 63 SSW 13 20 30.06 1018 10 16 0.00 0.00
4:53 am 04:53 Cloudy 48 8.9 33 0.6 56 56 SW 14 22 30.05 1018 10 16 0.00 0.00
5:53 am 05:53 Clear 41 5 31 -0.6 67 67 SSW 12 19 30.06 1018 10 16 0.00 0.00
6:53 am 06:53 Clear 41 5 31 -0.6 67 67 SSW 8 13 30.07 1018 10 16 0.00 0.00
7:53 am 07:53 Sunny 44 6.7 33 0.6 65 65 S 10 17 30.07 1018 10 16 0.00 0.00
8:53 am 08:53 Sunny 55 12.8 35 1.7 47 47 SSW 8 13 30.05 1018 10 16 0.00 0.00
9:53 am 09:53 Sunny 60 15.6 33 0.6 36 36 SW 9 15 30.04 1017 10 16 0.00 0.00
10:53 am 10:53 Mostly Sunny 65 18.3 28 -2.2 25 25 WSW 21 33 30.01 1016 10 16 0.00 0.00
11:53 am 11:53 Mostly Sunny 68 20 28 -2.2 22 22 WSW 21 33 30.00 1016 10 16 0.00 0.00
12:53 pm 12:53 Sunny 70 21.1 26 -3.3 19 19 WSW 22 35 29.98 1015 10 16 0.00 0.00
1:53 pm 13:53 Sunny 71 21.7 25 -3.9 18 18 W 22 35 29.96 1015 10 16 0.00 0.00
2:53 pm 14:53 Sunny 74 23.3 21 -6.1 14 14 W 23 37 29.94 1014 10 16 0.00 0.00
3:53 pm 15:53 Sunny 73 22.8 26 -3.3 17 17 W 17 28 29.92 1013 10 16 0.00 0.00
4:53 pm 16:53 Sunny 73 22.8 27 -2.8 18 18 W 21 33 29.90 1012 10 16 0.00 0.00
5:53 pm 17:53 Sunny 70 21.1 29 -1.7 22 22 WSW 17 28 29.91 1013 10 16 0.00 0.00
6:53 pm 18:53 Sunny 61 16.1 31 -0.6 32 32 WSW 8 13 29.93 1014 10 16 0.00 0.00
7:53 pm 19:53 Clear 55 12.8 32 0 42 42 SW 13 20 29.93 1013 10 16 0.00 0.00
8:53 pm 20:53 Clear 53 11.7 32 0 45 45 WSW 9 15 29.91 1013 10 16 0.00 0.00
9:53 pm 21:53 Clear 51 10.6 33 0.6 50 50 SSW 9 15 29.89 1012 10 16 0.00 0.00
10:53 pm 22:53 Clear 50 10 34 1.1 54 54 SSW 9 15 29.87 1012 10 16 0.00 0.00
11:53 pm 23:53 Clear 52 11.1 34 1.1 50 50 S 9 15 29.85 1011 10 16 0.00 0.00

Powered by AerisWeather